This is the latest recevied weather packets stored in our database for station/object KD0TNH-13. If no packets are shown the sender has not sent any weather packets the latest 10 day(s).
| Time | Temp. | Humidity | Pressure | Rain* | Wind** | Luminosity | Snow |
|---|---|---|---|---|---|---|---|
| 1787767380 | 23.33° C | 81% | 29 hPa | 0 mm | 0 m/s | - | - |
| 1787767079 | 23.33° C | 79% | 29 hPa | 0 mm | 0 m/s | - | - |
| 1787766779 | 23.89° C | 76% | 29 hPa | 0 mm | 0 m/s | - | - |
| 1787766479 | 23.89° C | 77% | 29 hPa | 0 mm | 0 m/s | - | - |
| 1787766179 | 24.44° C | 77% | 29 hPa | 0 mm | 0.89 m/s, 7° | - | - |
| 1787765878 | 24.44° C | 80% | 29 hPa | 0 mm | 0.45 m/s, 113° | - | - |
| 1787765577 | 23.89° C | 79% | 29 hPa | 0 mm | 0 m/s | - | - |
| 1787765276 | 23.89° C | 78% | 29 hPa | 0 mm | 0 m/s | - | - |
| 1787764976 | 23.89° C | 80% | 29 hPa | 0 mm | 0 m/s | - | - |
| 1787764675 | 23.89° C | 79% | 29 hPa | 0 mm | 0 m/s | - | - |
| 1787764375 | 23.89° C | 79% | 29 hPa | 0 mm | 0 m/s | - | - |
| 1787764079 | 23.33° C | 80% | 29 hPa | 0 mm | 0.45 m/s, 33° | - | - |
| 1787763774 | 23.33° C | 82% | 29 hPa | 0 mm | 0 m/s | - | - |
| 1787763473 | 23.33° C | 80% | 29 hPa | 0 mm | 0.45 m/s, 23° | - | - |
| 1787763172 | 23.89° C | 78% | 29 hPa | 0 mm | 0 m/s | - | - |
| 1787762871 | 24.44° C | 81% | 29 hPa | 0 mm | 0 m/s | - | - |
| 1787762571 | 24.44° C | 80% | 29 hPa | 0 mm | 0 m/s | - | - |
| 1787762271 | 24.44° C | 79% | 29 hPa | 0 mm | 0 m/s | - | - |
| 1787761968 | 23.89° C | 79% | 29 hPa | 0 mm | 0 m/s | - | - |
| 1787761667 | 23.89° C | 81% | 29 hPa | 0 mm | 0.45 m/s, 159° | - | - |
| 1787761367 | 23.89° C | 80% | 29 hPa | 0 mm | 0.45 m/s, 181° | - | - |
| 1787761066 | 23.89° C | 81% | 29 hPa | 0 mm | 0 m/s | - | - |
| 1787760764 | 23.33° C | 82% | 29 hPa | 0 mm | 0 m/s | - | - |
| 1787760463 | 23.33° C | 83% | 29 hPa | 0 mm | 0 m/s | - | - |
| 1787760162 | 22.78° C | 85% | 29 hPa | 0 mm | 0 m/s | - | - |
* Rain latest hour (hover to see other rain measurements)
** Current wind speed in m/s (hover to see current wind gust speed)